Flight Track Log - Related Links

Times and Time Zones

All times are in EDT time to prevent confusion due to time zone crossing. See the N488VC flight status page for this flight to view local times or setup timezone preferences in your user account.

Time Position Orientation Groundspeed Altitude Reporting Facility
EDT Latitude Longitude Course Direction KTS MPH feet Rate Location/Type
Mon 03:10:28 PM 38.9667 -77.5500 North 243 280 3,600  Level Potomac TRACON
Mon 03:12:21 PM 39.0708 -77.6583 321° Northwest 284 327 7,000 2,211 Climbing Washington Center
Mon 03:13:19 PM 39.1456 -77.6683 354° North 268 308 9,900 2,420 Climbing Washington Center
Mon 03:14:20 PM 39.2400 -77.6308 17° North 302 348 11,800 1,869 Climbing Washington Center
Mon 03:15:21 PM 39.3450 -77.5856 18° North 350 403 13,700 1,875 Climbing Washington Center
Mon 03:16:00 PM 40.0800 -77.4333 North  Level FlightAware Approximate
Mon 03:18:04 PM 39.6486 -77.4581 18° North 404 465 18,800  Level New York Center
Mon 03:19:05 PM 39.7550 -77.4575 360° North 410 472 20,300 1,664 Climbing New York Center
Mon 03:20:03 PM 39.8742 -77.4525 North 415 478 22,100 1,815 Climbing New York Center
Mon 03:21:04 PM 39.9953 -77.4506 North 425 489 23,900 2,100 Climbing New York Center
Mon 03:22:03 PM 40.1122 -77.4481 North 425 489 26,300 1,916 Climbing New York Center
Mon 03:23:03 PM 40.2500 -77.4450 North 430 495 27,700 1,250 Climbing New York Center
Mon 03:24:03 PM 40.3792 -77.4439 360° North 443 510 28,800 645 Climbing New York Center
Mon 03:25:04 PM 40.5150 -77.4406 North 466 536 29,000 99 Climbing New York Center
Mon 03:26:04 PM 40.6589 -77.4383 North 498 573 29,000  Level New York Center
Mon 03:27:05 PM 40.8050 -77.4361 North 515 593 29,000  Level New York Center
Mon 03:28:05 PM 40.9511 -77.4311 North 526 605 29,000  Level New York Center
Mon 03:29:03 PM 41.1006 -77.4072 North 531 611 29,000  Level New York Center
Mon 03:30:03 PM 41.2217 -77.2894 36° Northeast 516 594 29,000  Level New York Center
Mon 03:31:04 PM 41.2992 -77.1256 58° Northeast 491 565 29,000  Level New York Center
Mon 03:32:06 PM 41.3728 -76.9583 60° Northeast 505 581 29,000  Level New York Center
Mon 03:33:04 PM 41.4461 -76.7878 60° Northeast 516 594 29,000 -203 Level New York Center
Mon 03:34:04 PM 41.5192 -76.6169 60° Northeast 521 600 28,600 -1,531 Descending New York Center
Mon 03:36:20 PM 41.6775 -76.2511 60° Northeast 495 570 24,000 -1,408 Descending Boston Center
Mon 03:37:20 PM 41.7431 -76.0936 61° Northeast 487 560 24,000  Level Boston Center
Mon 03:38:19 PM 41.8108 -75.9331 60° Northeast 487 560 24,000  Level Boston Center
Mon 03:39:19 PM 41.8761 -75.7750 61° Northeast 487 560 24,000  Level Boston Center
Mon 03:40:19 PM 41.9389 -75.6219 61° Northeast 476 548 24,000  Level Boston Center
Mon 03:41:19 PM 42.0036 -75.4631 61° Northeast 476 548 24,000  Level Boston Center
Mon 03:42:20 PM 42.0661 -75.3094 61° Northeast 470 541 24,000 -750 Level Boston Center
Mon 03:43:19 PM 42.1178 -75.1494 66° East 465 535 22,500 -2,450 Descending Boston Center
Mon 03:44:20 PM 42.1381 -75.0019 79° East 434 499 19,100 -2,250 Descending Boston Center
Mon 03:45:19 PM 42.1186 -74.8389 99° East 434 499 18,000 -1,150 Descending Boston Center
Mon 03:46:20 PM 42.0694 -74.7028 116° Southeast 407 468 16,800 -1,650 Descending Boston Center
Mon 03:47:19 PM 42.0075 -74.5553 119° Southeast 401 461 14,700 -2,017 Descending Boston Center
Mon 03:48:19 PM 41.9597 -74.4364 118° Southeast 401 461 12,800 -1,736 Descending Boston Center
Mon 03:49:20 PM 41.8825 -74.3222 132° Southeast 392 451 11,200 -893 Descending Boston Center
Mon 03:50:20 PM 41.8067 -74.2450 143° Southeast 374 430 11,000 -550 Descending Boston Center
Mon 03:51:20 PM 41.7306 -74.1703 144° Southeast 336 387 10,100 -1,150 Descending Boston Center
Mon 03:52:20 PM 41.6753 -74.1161 144° Southeast 292 336 8,700 -1,300 Descending Boston Center
Mon 03:53:20 PM 41.6092 -74.0697 152° Southeast 269 310 7,500 -1,182 Descending Boston Center
Mon 03:54:32 PM 41.5167 -74.0167 157° South 255 293 6,100 -783 Descending New York TRACON
Mon 03:55:38 PM 41.4500 -73.9667 151° Southeast 269 310 5,700 -1,200 Descending New York TRACON
Mon 03:56:32 PM 41.3833 -73.9333 159° South 249 287 3,700 -1,421 Descending New York TRACON
Mon 03:57:32 PM 41.3333 -73.9000 153° Southeast 220 253 3,000 -226 Descending New York TRACON
Mon 03:59:38 PM 41.2333 -73.8333 153° Southeast 190 219 3,000 -32 Level New York TRACON
Mon 04:00:38 PM 41.1833 -73.8000 153° Southeast 145 167 2,900 -400 Descending New York TRACON
Mon 04:01:38 PM 41.1500 -73.7667 143° Southeast 134 154 2,200 -650 Descending New York TRACON
Mon 04:02:38 PM 41.1167 -73.7500 159° South 134 154 1,600 -650 Descending New York TRACON
Mon 04:03:38 PM 41.1000 -73.7333 143° Southeast 131 151 900 -700 Descending New York TRACON
Mon 04:05:00 PM 41.0668 -73.6996 246° West  Level FlightAware Approximate
Mon 04:12:00 PM 41.0667 -73.7000 246° West  Level FlightAware Approximate
Mon 04:13:00 PM 41.0669 -73.7076 246° West  Level Estimated

Login

Don't have an account? Register now (free) for customized features, flight alerts, and more!